User: anonymous   Login
Location: Newark
(54.0500°N, 12.8333°E)
Time: 00:34:41
(UTC+00:00)
Language:

Transit 2A - Orbit

View from above orbital plane
View from above orbital plane
View from above satellite
View from above satellite

Ground track
Ground track

The orbit data is extracted from the following two-line orbital elements,

1    45U 60007A   20027.27402390 -.00000065 +00000-0 +10574-4 0  9993
2    45 066.6949 035.5973 0249256 058.2191 304.2927 14.33663494045455
Epoch (UTC): 27 January 2020 06:34:35
Eccentricity: 0.0249256
inclination: 66.6949°
perigee height: 601 km
apogee height: 958 km
right ascension of ascending node: 35.5973°
argument of perigee: 58.2191°
revolutions per day: 14.33663494
mean anomaly at epoch: 304.2927°
orbit number at epoch: 4545

The dashed part of the orbit path shows where the satellite is in the earth's shadow,  

DLR